This is the latest recevied weather packets stored in our database for station/object K4CRS-13. If no packets are shown the sender has not sent any weather packets the latest 10 day(s).
| Time | Temp. | Humidity | Pressure | Rain* | Wind** | Luminosity | Snow |
|---|---|---|---|---|---|---|---|
| 1787940513 | 31.11° C | 53% | 1053.5 hPa | 0 mm | - | 808 W/m² | - |
| 1787940208 | 31.11° C | 47% | 1053.6 hPa | 0 mm | - | 788 W/m² | - |
| 1787939908 | 31.11° C | 50% | 1053.3 hPa | 0 mm | - | 790 W/m² | - |
| 1787939607 | 30.56° C | 50% | 1053.5 hPa | 0 mm | - | 790 W/m² | - |
| 1787939302 | 30.56° C | 50% | 1053.5 hPa | 0 mm | - | 789 W/m² | - |
| 1787938997 | 30.56° C | 52% | 1053.5 hPa | 0 mm | - | 790 W/m² | - |
| 1787938695 | 31.11° C | 50% | 1053.5 hPa | 0 mm | - | 790 W/m² | - |
| 1787938392 | 31.11° C | 57% | 1053.6 hPa | 0 mm | - | 799 W/m² | - |
| 1787938087 | 30.56° C | 53% | 1053.6 hPa | 0 mm | - | 802 W/m² | - |
| 1787937782 | 30° C | 54% | 1053.9 hPa | 0 mm | - | 797 W/m² | - |
| 1787937478 | 30° C | 53% | 1053.8 hPa | 0 mm | - | 790 W/m² | - |
| 1787937175 | 30° C | 51% | 1053.9 hPa | 0 mm | - | 780 W/m² | - |
| 1787936874 | 30° C | 55% | 1053.9 hPa | 0 mm | - | 771 W/m² | - |
| 1787936568 | 30° C | 53% | 1053.8 hPa | 0 mm | - | 775 W/m² | - |
| 1787936267 | 30.56° C | 54% | 1053.7 hPa | 0 mm | - | 767 W/m² | - |
| 1787935964 | 30° C | 58% | 1053.9 hPa | 0 mm | - | 759 W/m² | - |
| 1787935664 | 30° C | 59% | 1053.9 hPa | 0 mm | - | 760 W/m² | - |
| 1787935360 | 30° C | 58% | 1054 hPa | 0 mm | - | 155 W/m² | - |
| 1787935056 | 30° C | 58% | 1053.7 hPa | 0 mm | - | 781 W/m² | - |
| 1787934751 | 28.89° C | 61% | 1053.8 hPa | 0 mm | - | 747 W/m² | - |
| 1787934450 | 29.44° C | 60% | 1054 hPa | 0 mm | - | 236 W/m² | - |
| 1787934145 | 30° C | 59% | 1053.8 hPa | 0 mm | - | 242 W/m² | - |
| 1787933843 | 29.44° C | 58% | 1054.1 hPa | 0 mm | - | 764 W/m² | - |
| 1787933538 | 28.89° C | 62% | 1053.7 hPa | 0 mm | - | 746 W/m² | - |
| 1787933234 | 29.44° C | 59% | 1054 hPa | 0 mm | - | 180 W/m² | - |
* Rain latest hour (hover to see other rain measurements)
** Current wind speed in m/s (hover to see current wind gust speed)